Location: Helsinki
(60.1699°N, 24.9384°E)
Time: 14:34:00
(UTC+02:00)

Tiros 1 - Pass Details

Date: 07 October 2022
Orbit: 629 x 662 km, 48.4° (Epoch: 07 December)

Event Time Altitude Azimuth Distance (km) Brightness Sun altitude
Rises 02:52:24 0° 252° (WSW) 2,993 - -31.8°
Reaches altitude 10° 02:55:20 10° 234° (SW) 2,076 - -31.6°
Maximum altitude 02:58:37 19° 191° (S) 1,578 - -31.4°
Drops below altitude 10° 03:01:53 10° 148° (SSE) 2,064 - -31.2°
Sets 03:04:48 0° 130° (SE) 2,968 - -31.0°
